Torna al catalogo

COSMOS 683

AttivoMilitareLEO
NORAD 7441·PAYLOAD·🇷🇺 Russia

Lanciato Sep 19, 1974 da Plesetsk Cosmodrome

Loading…

Prossimi Passaggi (prossime 24 ore)

TLE

AggiornatoSource: Space-Track

Epoca: Sep 14, 2026, 09:37 UTC

1 07441U 74072G   26257.40117626 -.00000027  00000-0 -72509-4 0  9993
2 07441  74.0353  47.8071 0020289 158.7705 201.4194 12.53520292378832

Traccia COSMOS 683 in tempo reale con AllMySat

Download on the App Store